RH
32 46 58 57 52 54 53 44 46 49 48 52 55 53 52 51 46 37 39 43 43 55 56 51 54 54 54 53 49 49 48 49 50 50 51 52 52 53 53 54 55 54 52 50 47 47 49 49 49 50 51 53 54 56 55 54 55 55 54 53 53 52 51 51 49 49 48 46 46 45 44 43 42 41 40 40 39 39 39 39 40 41 41 40 37 36
33 51 56 48 44 48 48 44 51 52 49 53 48 47 54 53 47 39 40 43 43 58 62 52 58 60 55 56 53 50 50 50 50 50 51 51 52 53 53 55 55 55 53 50 48 48 50 51 52 52 54 55 55 56 57 56 55 55 54 53 52 50 48 46 43 42 40 39 38 37 36 35 34 34 33 34 34 34 34 34 36 36 36 34 30 29
44 53 48 38 38 41 41 46 55 52 47 50 48 57 64 54 55 58 54 46 42 58 63 57 63 62 55 56 55 54 54 50 48 49 50 50 51 51 52 53 53 54 53 51 49 49 52 53 53 54 55 57 57 56 57 57 56 54 52 50 47 44 41 39 37 35 34 33 32 30 31 30 30 31 31 31 31 31 31 31 32 31 30 27 22 21
51 49 40 36 36 36 39 46 59 60 49 44 46 58 60 50 57 64 59 51 48 57 60 59 66 65 58 58 59 56 53 51 48 48 48 48 50 49 49 50 50 52 52 51 49 49 53 54 54 56 55 56 58 58 57 57 55 52 50 46 42 39 37 35 33 32 31 29 28 27 28 28 28 29 29 29 29 29 29 28 28 26 24 21 16 14
52 43 36 41 43 43 43 45 59 65 60 55 49 46 46 49 53 54 58 59 55 56 60 65 70 70 66 64 67 62 55 56 52 50 50 48 48 48 48 48 48 50 50 50 49 48 51 53 55 58 58 57 58 58 58 56 54 51 47 43 39 37 35 34 32 30 30 29 29 29 30 31 30 31 31 29 27 27 26 26 25 22 19 16 13 11
48 38 37 46 53 55 50 48 55 61 67 63 47 37 40 46 50 56 65 63 59 57 55 59 60 64 73 71 68 67 66 65 58 55 55 51 51 51 50 50 49 49 50 51 51 49 50 52 54 58 60 59 58 58 57 56 54 50 46 41 38 36 34 33 32 32 32 32 34 35 36 37 36 36 33 30 27 25 24 23 20 17 13 11 10 9
46 42 45 50 57 62 56 48 47 55 65 54 36 37 43 45 50 59 63 61 64 55 42 44 42 44 64 72 68 67 71 72 65 61 59 55 55 55 54 54 52 52 52 53 54 52 50 51 54 57 58 58 57 58 58 57 55 50 46 42 38 37 37 37 38 38 37 38 40 42 44 44 43 40 33 29 26 23 20 17 14 11 9 9 8 8
44 49 51 52 58 61 53 45 45 52 55 41 30 39 48 49 50 54 59 63 64 52 42 45 36 30 50 68 69 66 70 74 73 71 65 57 56 56 56 56 54 54 54 53 54 54 53 52 54 55 56 58 59 58 59 61 58 52 47 44 42 42 43 44 45 46 46 45 46 49 51 51 48 40 31 26 23 18 14 11 10 8 8 7 7 8
42 50 51 48 52 53 46 41 42 46 49 47 42 45 51 51 49 52 60 65 63 54 53 50 35 34 52 65 67 66 69 73 73 73 69 61 57 56 56 56 55 54 54 54 55 55 55 54 54 56 56 58 59 60 62 64 61 55 51 49 49 49 50 52 52 53 55 52 51 53 56 55 49 38 28 21 16 12 8 8 8 7 7 7 7 8
38 39 40 43 48 47 42 40 42 44 46 51 47 44 54 61 61 58 59 62 62 60 53 41 35 41 51 64 69 68 71 71 67 69 69 60 56 56 56 55 55 56 55 55 55 55 56 56 56 58 59 58 60 63 66 67 64 59 57 55 55 54 54 55 56 57 59 57 55 58 61 58 50 37 24 16 11 7 6 7 7 7 7 7 7 8
45 42 37 39 40 37 36 34 35 39 38 39 42 44 51 63 65 60 65 62 52 56 49 34 37 42 46 63 71 69 72 70 64 67 70 62 55 55 55 54 54 55 54 54 55 55 56 58 58 59 60 58 60 65 67 68 67 64 63 62 59 57 58 58 58 61 61 60 59 62 64 61 51 35 19 11 8 6 6 7 7 7 7 7 8 9
55 55 45 37 29 29 38 34 28 38 41 33 37 42 38 46 53 56 73 66 43 54 55 35 36 41 46 57 59 60 69 72 66 63 66 66 58 53 52 52 51 50 51 52 52 53 55 59 60 59 59 58 60 64 66 68 69 68 68 68 63 60 62 60 59 61 61 62 64 66 65 61 51 33 14 7 7 6 7 7 8 8 7 8 10 10
60 56 47 40 29 29 43 46 38 42 47 38 37 48 53 58 57 57 74 64 40 51 53 33 33 42 44 43 45 54 61 66 66 56 54 55 50 47 49 49 48 48 49 50 49 50 52 56 57 57 58 58 59 62 65 68 70 71 73 74 68 63 62 59 58 60 61 64 67 68 67 61 53 36 14 5 7 6 7 8 9 8 7 9 11 11
62 54 50 49 34 27 39 48 41 35 42 43 37 48 67 71 59 54 65 58 42 47 43 30 37 50 44 36 47 57 53 56 59 48 43 44 41 42 46 49 52 52 51 50 48 47 48 50 52 54 55 56 57 60 64 68 70 72 75 75 70 64 62 58 58 60 61 64 66 67 68 61 57 45 21 6 7 8 8 10 10 9 8 9 11 11
48 31 36 45 31 30 42 43 39 40 48 50 40 44 64 69 58 52 57 59 60 61 49 36 46 58 48 45 62 63 52 54 53 45 46 47 46 45 46 50 55 56 53 50 49 47 45 45 48 52 54 55 56 58 62 66 70 73 74 74 71 67 62 58 60 61 60 61 62 65 68 63 61 55 30 9 6 8 9 10 11 11 10 10 11 12
40 24 33 41 29 32 41 38 42 44 39 39 39 42 52 58 61 65 66 63 62 67 70 57 52 55 44 51 74 68 56 59 54 52 56 53 52 53 52 49 46 47 48 45 46 44 41 42 45 48 50 52 54 55 58 62 68 71 71 72 74 71 64 60 61 62 60 58 59 63 67 66 65 61 39 13 6 9 9 11 12 12 12 12 12 13
46 47 49 45 38 34 33 37 43 34 21 27 34 31 37 48 59 69 75 69 53 55 67 49 33 40 33 41 73 75 68 70 64 63 64 57 57 60 56 45 36 38 38 37 40 39 39 42 44 46 48 50 52 52 54 61 66 68 68 73 78 74 66 62 63 63 61 57 57 61 67 69 69 64 45 18 6 9 10 11 13 13 14 13 13 14
50 60 57 49 49 40 31 37 41 33 25 30 33 31 38 51 59 65 69 74 64 55 59 43 29 38 32 36 67 78 74 74 71 71 69 63 64 63 54 41 34 36 35 36 39 39 42 44 44 46 48 49 53 55 59 65 67 66 68 73 78 76 69 65 65 65 62 58 56 59 66 70 70 67 51 22 7 10 10 11 13 14 15 15 15 16
55 63 58 47 45 42 42 42 41 39 32 31 33 33 38 44 55 61 55 61 65 58 64 62 48 43 45 55 63 59 63 67 65 69 73 71 67 61 50 39 35 37 37 40 40 40 43 43 42 43 45 48 54 59 65 70 70 69 70 71 71 72 71 68 68 67 65 60 57 59 66 71 71 68 53 24 8 10 11 11 13 14 16 16 17 18
52 56 52 43 37 42 49 42 41 41 34 35 38 37 44 53 64 66 54 55 63 63 69 72 63 54 60 68 53 37 49 57 53 60 69 66 56 47 41 36 34 36 37 38 37 39 41 40 40 40 42 46 50 57 66 70 72 72 73 76 74 74 75 73 71 69 66 62 59 61 67 71 71 68 52 24 10 11 11 12 15 15 16 18 19 20
58 51 49 53 46 45 48 39 38 37 34 44 49 45 48 55 61 55 49 61 68 70 75 73 70 61 50 47 36 29 42 46 44 53 59 52 38 31 30 30 30 32 33 35 35 39 40 40 42 43 44 48 51 59 68 69 71 73 76 81 82 83 83 78 73 70 67 63 60 63 68 71 72 68 51 23 12 14 13 14 15 15 18 19 20 20
63 51 52 62 50 45 51 45 39 37 40 48 51 53 55 59 57 43 47 72 74 73 77 70 63 48 31 33 33 32 43 42 40 49 52 42 29 26 28 26 29 31 31 35 37 40 43 43 46 48 49 53 56 63 67 66 69 74 77 81 84 89 88 79 73 70 66 63 60 63 69 72 73 69 50 24 14 16 16 16 17 17 20 20 20 20
59 57 59 63 50 42 47 46 42 45 50 50 46 48 56 68 67 51 62 82 73 67 70 70 69 46 28 40 41 36 44 38 32 40 44 36 27 28 30 27 30 33 33 38 41 43 45 44 46 47 48 52 57 61 64 67 69 71 73 77 82 87 84 76 72 68 65 63 61 63 69 73 73 69 50 25 17 19 18 18 20 21 23 22 21 22
59 60 56 60 60 51 50 51 45 45 49 51 53 50 50 66 74 72 83 84 74 72 60 61 71 45 33 57 53 37 39 34 30 34 35 35 31 29 31 30 33 36 36 40 41 41 42 40 40 41 42 45 48 52 59 63 63 64 66 69 74 76 75 72 69 66 64 63 61 65 71 73 74 70 52 28 20 24 22 22 24 25 26 26 25 26
55 55 48 54 59 52 60 65 55 55 55 53 61 57 51 68 79 78 80 75 76 77 54 52 62 37 38 69 61 46 50 46 39 35 32 38 37 31 31 31 31 34 35 36 36 36 37 37 37 38 39 43 47 51 56 57 58 59 60 62 65 66 68 69 67 66 64 63 63 66 71 74 75 72 55 32 26 30 28 27 29 30 31 30 29 29
65 64 45 43 46 36 39 46 45 56 59 50 56 57 54 66 69 66 76 80 83 79 64 66 63 34 33 52 46 43 51 48 40 33 30 34 33 30 30 29 29 31 32 33 33 35 36 36 38 38 39 43 46 50 53 53 55 56 56 57 58 61 66 67 66 65 63 63 65 67 72 76 78 75 58 36 31 35 33 34 36 36 36 34 31 30
75 73 51 45 50 40 32 33 35 45 44 34 42 51 58 68 64 65 82 86 79 76 73 69 58 44 42 40 36 35 35 35 35 29 29 31 29 30 31 30 32 32 32 34 34 36 38 37 37 37 39 41 43 45 47 49 52 53 54 56 58 63 67 68 67 65 64 67 68 70 76 80 80 78 60 39 35 39 38 40 42 42 41 37 34 32
71 69 60 56 53 46 42 40 39 43 40 34 37 43 54 72 74 69 73 71 66 68 64 51 48 56 52 37 34 35 31 33 34 32 33 33 31 32 32 32 33 32 33 35 36 38 39 39 40 41 42 43 43 45 46 48 50 51 53 56 60 65 69 69 68 67 68 71 71 74 80 82 82 78 60 41 40 43 42 45 47 47 46 41 36 34
57 57 64 67 62 56 51 47 44 45 42 40 42 41 45 67 81 74 64 59 59 61 53 40 44 53 47 38 38 37 36 39 39 36 36 33 31 31 30 31 33 33 34 34 36 40 42 43 45 44 44 44 45 47 48 50 53 54 55 58 62 67 70 71 71 72 73 75 75 80 85 84 83 78 60 44 44 46 45 47 50 50 47 41 36 36
44 59 74 73 70 60 45 43 47 49 47 44 45 44 41 53 70 72 64 58 58 62 56 49 54 56 47 44 44 39 38 39 36 32 30 27 28 28 30 33 33 33 35 36 40 43 45 46 47 48 51 54 56 58 58 58 59 59 59 61 64 69 72 74 76 77 77 78 81 85 85 83 84 78 61 47 47 50 48 49 51 49 45 40 37 38
33 59 79 73 70 60 43 43 46 45 50 47 40 38 36 39 50 58 59 58 61 66 63 60 69 67 49 40 38 35 32 29 27 26 26 26 28 29 31 34 34 36 39 41 45 48 52 57 61 65 67 68 68 68 66 65 65 65 65 65 67 71 75 78 80 81 83 85 87 87 84 84 85 76 60 51 53 54 51 51 50 47 44 41 40 41
45 63 76 69 64 54 39 39 39 38 46 47 39 37 34 35 43 47 46 49 52 54 55 61 66 55 36 28 29 27 24 24 25 26 27 28 29 31 34 36 38 41 44 49 56 62 68 74 76 77 77 75 75 74 72 71 68 68 70 70 72 75 78 81 84 86 89 90 88 85 85 88 85 72 58 55 57 56 53 52 51 47 45 43 42 44
74 70 64 58 60 58 46 38 41 46 46 39 39 44 39 33 40 42 39 41 41 42 50 56 48 33 25 26 28 26 25 26 29 29 29 31 32 35 39 40 43 48 55 63 71 77 81 82 81 81 80 79 79 78 78 78 75 74 77 78 79 81 83 86 89 91 92 89 86 86 89 89 81 67 59 57 58 56 55 54 52 49 46 44 45 47
91 72 61 60 63 72 69 53 47 50 42 31 35 43 35 25 28 33 32 30 30 36 45 45 34 28 27 28 28 28 28 29 30 30 31 33 37 40 43 46 52 61 69 76 82 84 84 83 82 82 82 82 83 83 84 84 82 82 82 84 87 87 88 91 93 93 91 87 87 90 92 87 76 65 60 59 60 59 58 58 55 52 49 47 48 49
93 78 72 73 68 74 78 61 41 36 36 33 33 36 31 25 28 32 32 31 30 31 35 34 31 29 28 27 28 29 30 30 31 33 34 37 43 48 51 57 64 73 80 84 85 85 84 85 87 87 86 85 82 81 83 85 87 87 87 91 94 94 96 98 96 93 89 88 91 93 90 81 70 63 62 63 64 64 61 60 57 52 50 49 50 50
88 81 74 75 71 68 68 58 34 21 26 28 26 33 39 35 33 35 38 39 35 31 34 34 32 31 29 29 30 28 29 32 33 35 39 47 56 60 64 71 77 82 86 86 86 87 90 92 91 88 86 84 81 82 87 92 95 95 95 98 99 100 100 97 91 90 90 91 92 90 84 75 67 65 67 69 69 67 64 61 57 53 51 52 52 53
72 77 71 67 65 61 67 73 52 28 30 35 32 39 42 32 30 36 42 43 35 29 34 34 31 33 32 31 30 30 34 39 39 38 44 56 67 72 76 81 84 85 85 86 89 91 89 86 83 82 86 89 92 95 98 100 100 100 100 101 101 98 93 89 89 91 91 90 89 86 80 74 70 71 73 73 71 67 64 62 59 55 54 55 55 54
56 64 64 57 61 64 64 70 60 39 36 41 42 45 41 32 35 41 45 48 37 24 25 31 35 36 34 33 35 38 44 51 52 48 53 67 77 80 82 82 81 83 86 88 88 83 77 77 79 83 88 91 92 96 99 100 100 100 100 100 98 93 89 90 93 93 91 90 89 87 82 77 75 74 74 74 71 67 65 63 60 57 56 57 57 55
54 63 66 63 73 75 59 56 59 47 35 34 39 47 45 35 34 39 44 47 37 22 20 29 35 34 35 40 46 52 62 72 70 62 67 79 82 79 79 79 81 85 84 82 80 77 78 83 87 90 94 93 92 96 100 101 100 100 99 98 97 95 94 96 97 95 95 95 93 90 84 78 74 72 72 73 69 67 66 64 61 59 58 59 59 57
64 69 76 78 85 82 69 67 67 54 41 36 38 46 47 36 32 42 48 40 27 19 22 28 32 37 45 54 59 64 74 83 80 75 78 83 79 75 78 80 81 82 80 78 80 83 88 93 95 97 99 99 99 100 100 100 100 100 100 100 100 99 97 98 100 99 98 96 93 90 83 75 71 70 72 72 69 68 68 66 62 62 61 61 61 59
85 85 83 84 84 81 82 84 73 59 54 50 44 43 41 35 37 45 45 32 20 21 28 34 41 50 58 65 68 72 78 80 81 82 80 78 76 77 78 77 77 80 82 85 89 93 97 99 98 98 99 98 96 93 94 99 101 101 100 100 101 101 100 101 101 97 95 95 92 85 76 70 70 73 73 73 72 71 70 67 65 65 64 63 62 61
76 85 83 84 82 79 86 88 73 59 51 44 44 45 36 35 42 39 30 25 23 27 36 44 53 62 68 73 77 80 82 80 80 80 76 75 79 78 76 77 81 85 90 92 96 100 99 94 92 96 96 91 87 87 92 99 101 100 100 101 102 104 103 102 98 93 92 92 86 78 73 71 73 75 74 73 73 73 71 69 69 67 66 66 65 63
53 63 77 88 78 62 69 76 66 58 49 36 37 43 36 33 35 27 23 28 30 36 46 55 64 72 77 80 82 81 81 80 78 77 75 77 81 79 80 87 90 91 95 98 100 100 92 85 88 93 90 86 87 92 98 100 101 101 100 97 98 100 99 98 98 94 89 84 78 75 75 75 76 76 75 75 75 75 74 73 71 70 68 67 66 65
50 48 59 70 58 44 53 62 53 48 45 32 27 32 31 27 24 23 29 36 36 45 58 65 72 79 80 81 81 79 79 78 76 76 77 80 82 84 90 94 91 91 98 100 99 95 87 84 90 91 89 91 92 91 96 101 101 98 93 90 90 93 96 99 99 94 85 78 76 76 76 77 77 76 75 75 76 76 75 74 73 72 68 66 66 65
48 44 43 45 44 40 39 40 34 28 27 23 22 25 24 21 24 29 35 39 45 57 67 70 75 79 78 79 79 78 79 79 77 78 81 84 88 92 95 93 89 94 100 99 96 90 84 88 96 93 91 95 91 86 90 95 94 91 88 86 87 90 92 93 90 85 80 77 77 78 77 77 76 74 74 74 74 74 74 74 73 71 67 65 65 64
32 30 33 36 44 44 29 24 27 23 19 20 22 23 23 24 29 33 35 42 53 63 67 71 77 80 79 79 79 79 82 80 79 83 89 91 93 93 92 90 92 99 101 96 90 83 78 85 94 94 93 95 92 87 87 87 87 88 85 82 82 82 81 80 79 77 76 76 77 77 77 77 75 75 74 73 73 74 74 74 73 70 67 65 64 64
34 24 30 34 40 43 34 28 27 22 22 24 23 24 26 28 31 35 39 48 56 61 67 73 79 81 81 81 81 83 84 83 85 92 96 94 92 90 90 93 99 101 97 89 81 76 77 83 90 92 93 93 91 89 88 86 86 86 81 78 78 78 76 76 77 76 75 76 77 76 77 77 76 76 75 73 72 73 72 71 71 68 65 64 63 64
38 30 36 37 36 36 34 30 25 23 26 26 24 26 27 29 36 42 47 54 60 65 71 77 81 84 83 83 85 87 86 89 94 98 95 90 89 90 93 99 102 96 86 78 75 77 81 85 89 91 91 90 90 89 85 81 80 78 77 77 77 77 77 76 77 77 77 77 78 78 78 79 78 77 75 73 71 71 70 68 67 65 63 63 64 66
34 35 38 38 39 41 38 33 30 32 33 28 26 30 32 35 42 47 50 57 64 72 80 83 85 86 85 86 90 91 92 96 96 93 90 87 89 94 99 100 94 85 78 76 77 81 84 85 88 91 90 87 85 81 75 73 74 74 75 76 75 76 77 77 78 79 78 78 80 80 80 80 79 77 76 73 71 70 67 65 65 64 63 62 64 68
36 41 40 41 51 54 46 36 33 38 40 34 30 33 37 40 45 48 53 63 73 80 86 87 86 88 89 92 94 94 95 96 91 87 87 89 93 99 98 90 81 76 76 78 80 81 83 87 89 89 84 79 76 72 70 70 73 74 74 74 75 76 77 78 79 77 76 77 78 77 77 77 75 74 74 72 70 68 65 63 64 66 67 67 68 72
38 39 38 45 53 49 35 29 31 34 37 35 33 36 40 43 47 53 61 72 81 86 87 87 89 92 96 97 96 95 94 91 87 87 91 95 97 96 88 79 76 78 78 79 80 82 83 84 83 80 76 73 70 69 70 71 74 75 74 74 76 76 77 78 77 74 72 73 73 74 74 73 71 71 72 71 70 69 67 65 65 66 69 72 74 74
Wind_Speed
14 8 7 5 5 6 5 5 4 4 2 2 4 3 4 4 4 2 1 6 14 10 5 7 8 6 5 4 7 12 14 15 15 13 12 10 9 9 8 7 7 7 7 8 10 11 11 11 10 10 9 8 7 5 4 4 4 5 6 8 9 11 13 15 16 18 19 20 21 22 22 23 23 24 25 25 26 27 28 28 27 26 26 25 24 25
14 9 5 7 7 4 5 7 4 5 5 4 5 5 5 4 5 5 0 2 6 9 3 5 8 5 4 3 5 10 10 9 12 12 12 12 10 10 9 9 8 7 7 9 11 12 12 11 10 9 9 8 7 6 5 6 7 8 10 11 13 14 16 17 19 20 20 21 22 22 23 24 24 24 24 25 26 27 28 28 27 26 25 25 24 25
10 6 8 11 7 6 7 9 9 9 8 6 5 5 4 3 4 6 3 6 5 7 5 4 7 4 2 3 5 8 8 7 10 11 11 12 12 12 11 11 10 10 9 10 12 13 12 12 11 10 10 8 8 8 8 8 10 12 13 15 16 17 18 19 20 21 22 23 23 24 24 25 25 25 25 26 26 28 28 27 27 26 25 25 23 24
5 4 11 10 9 10 9 11 10 7 7 6 6 5 2 3 2 2 5 7 6 5 7 6 5 3 1 1 3 6 8 8 9 9 10 11 12 12 12 11 12 13 13 12 14 15 14 13 12 12 12 11 10 10 11 11 13 15 16 18 19 20 20 21 22 24 25 26 26 27 27 26 27 26 26 27 27 28 28 27 27 26 24 24 23 23
4 7 12 8 10 9 7 10 11 7 5 3 4 5 2 5 0 3 4 6 5 5 6 7 4 1 4 3 3 5 7 9 9 10 10 11 12 11 12 13 13 14 15 15 15 16 17 16 15 13 13 13 13 13 14 15 16 17 18 19 21 21 22 23 24 26 27 28 28 28 28 27 28 28 27 28 28 28 28 27 28 26 23 23 23 23
5 11 12 8 7 8 6 7 7 5 4 4 1 3 1 5 4 3 3 4 4 2 3 5 3 3 4 5 5 5 5 7 10 13 13 14 14 14 15 15 16 16 17 18 17 17 19 19 18 16 16 16 16 16 17 18 18 19 20 21 22 23 23 25 25 27 27 28 28 28 28 29 29 29 29 28 28 28 27 27 27 25 22 21 21 22
4 12 11 7 5 8 7 5 4 5 5 2 3 3 3 3 5 3 3 4 3 1 2 4 3 3 3 4 6 6 6 6 8 12 16 18 17 17 18 17 18 19 19 20 20 19 20 21 21 20 19 19 19 20 20 20 20 21 22 22 23 23 24 25 25 26 27 27 28 28 29 29 30 30 30 29 28 27 26 26 26 25 21 19 20 21
3 9 10 8 7 6 6 5 4 4 6 2 6 6 7 6 5 3 4 3 2 2 3 4 3 1 3 4 5 7 6 6 7 10 14 20 20 19 20 19 20 21 20 21 21 21 21 23 24 23 22 22 22 23 23 22 22 22 23 23 23 24 24 25 25 25 26 27 27 28 29 29 30 31 30 28 26 25 25 25 25 24 21 19 19 20
1 5 6 7 7 5 3 4 7 2 3 6 8 7 8 6 5 3 4 2 2 1 3 6 3 1 4 4 2 4 5 7 10 10 13 20 23 22 21 21 21 22 22 22 23 22 22 24 26 25 24 24 25 27 27 24 23 24 24 25 24 24 25 25 26 26 25 27 28 28 29 30 30 31 29 27 25 24 23 24 25 24 22 20 19 18
2 2 3 4 4 3 4 7 6 2 1 9 9 6 3 0 1 2 4 2 2 3 2 6 3 2 4 4 1 2 4 8 10 9 12 21 25 24 23 23 23 23 24 25 26 25 24 24 26 27 28 28 29 30 29 27 25 26 26 26 25 26 26 27 27 26 26 28 29 29 29 31 31 31 29 26 24 23 23 24 24 23 22 21 19 17
2 0 2 4 4 4 5 5 5 2 4 9 8 6 4 5 4 3 3 4 4 2 4 5 1 3 2 5 4 4 5 7 8 6 9 18 24 25 25 24 24 24 26 26 27 27 26 25 27 30 31 31 32 33 32 30 28 28 28 28 27 27 27 27 27 26 27 29 30 30 30 31 31 31 29 26 25 23 23 24 24 24 23 21 19 18
4 4 3 2 8 10 3 3 8 6 8 9 5 5 5 4 5 5 5 4 4 3 6 5 1 4 2 5 5 7 8 6 7 7 7 13 23 27 26 25 24 24 25 26 27 28 27 28 30 33 34 33 34 36 35 32 31 30 31 30 29 27 27 27 27 27 29 30 30 30 30 30 31 30 28 26 25 24 23 24 24 24 24 22 20 19
4 2 3 2 6 12 5 2 7 7 8 8 5 6 4 3 5 4 4 3 0 5 6 2 4 1 5 7 6 9 11 10 12 14 13 15 21 25 26 25 25 25 26 27 28 29 29 30 33 35 36 36 37 38 37 34 33 33 33 32 30 28 27 27 27 27 29 30 30 31 31 30 31 30 28 26 25 24 23 23 24 24 24 23 21 20
3 3 6 3 3 8 6 4 3 4 5 6 4 4 4 3 4 2 3 3 2 5 6 4 3 2 5 5 7 9 11 15 19 20 18 18 19 22 23 24 25 26 27 28 29 30 31 32 33 35 37 37 39 39 39 37 36 35 34 33 32 29 27 26 27 27 29 30 30 32 31 30 30 30 29 27 26 24 23 23 24 25 24 24 22 21
2 3 5 2 2 6 5 3 2 1 2 4 1 4 4 3 3 1 2 2 3 5 7 5 1 4 4 4 6 7 9 12 16 19 19 20 21 21 21 23 25 28 29 30 30 31 32 33 34 36 38 39 40 42 42 41 39 37 36 35 33 31 28 27 26 27 28 29 31 32 31 31 30 30 30 29 27 24 23 23 24 25 24 23 22 22
3 2 4 1 1 0 1 2 2 3 1 4 1 5 1 2 4 2 3 5 3 4 5 3 2 5 4 4 4 4 7 8 12 17 18 22 25 23 24 26 27 29 30 30 31 32 33 33 35 37 39 41 42 44 45 43 40 39 37 35 34 32 29 28 27 27 28 29 31 32 31 31 31 31 30 29 28 25 23 23 24 24 24 24 22 22
2 3 5 1 3 2 3 2 1 3 1 2 3 1 3 3 6 2 3 3 1 2 4 3 3 4 3 4 5 5 6 8 10 15 20 25 26 24 27 30 30 31 31 30 31 32 33 34 35 37 39 41 43 45 45 44 42 40 37 35 35 34 32 30 28 27 28 30 31 31 31 31 31 32 32 29 28 26 24 23 23 24 24 23 22 21
2 3 5 2 2 4 3 1 3 2 3 3 1 2 2 1 4 3 1 4 3 1 5 3 5 5 3 4 5 5 6 10 9 13 19 23 24 26 32 35 34 34 32 32 33 33 34 35 36 37 39 41 43 44 45 44 43 41 38 36 35 35 34 32 30 29 29 31 31 30 31 31 32 34 33 30 28 27 25 24 23 23 24 23 22 21
2 1 5 3 3 2 1 3 4 4 1 4 3 2 2 2 1 1 0 2 2 3 5 5 5 5 3 4 5 5 7 9 10 10 12 17 23 29 34 36 36 35 34 34 34 35 35 35 36 37 39 41 43 44 45 43 42 40 38 36 35 36 36 34 32 31 31 31 30 30 30 31 33 35 34 31 28 27 26 25 23 23 23 23 22 22
1 2 4 3 0 1 2 2 0 3 3 3 2 2 2 3 3 1 1 2 1 3 4 5 5 4 6 6 5 8 9 9 11 9 8 17 25 29 33 35 35 35 34 35 35 35 35 35 36 37 38 40 42 44 44 43 42 40 38 37 37 38 37 36 34 32 31 31 30 29 30 31 32 34 34 31 28 27 26 25 24 23 23 22 22 22
2 2 3 5 4 2 0 2 4 4 2 1 2 2 2 1 1 1 2 2 3 2 3 4 4 7 7 5 5 10 10 9 12 10 10 19 26 28 30 32 34 34 34 35 36 36 36 36 36 35 36 38 40 42 43 42 42 42 40 40 40 39 39 37 35 33 32 31 30 29 30 30 31 33 33 31 29 27 26 25 24 23 23 22 22 22
2 1 2 3 4 1 3 4 3 5 5 4 3 2 2 1 2 1 3 3 1 3 4 3 5 11 8 4 6 10 9 10 15 13 14 22 27 29 31 32 34 35 36 37 37 36 36 35 34 34 34 36 38 40 41 42 43 43 43 42 41 41 40 38 36 33 32 32 32 31 30 30 31 32 33 32 30 28 26 25 24 23 23 23 23 22
1 2 1 3 4 4 5 3 1 3 4 4 2 2 3 4 5 4 3 4 1 1 3 2 4 11 7 4 6 9 9 13 17 16 18 25 29 30 33 34 35 35 37 37 36 35 34 33 32 33 34 35 36 38 40 42 44 44 44 43 42 42 41 39 36 34 33 33 33 31 30 30 31 32 33 32 30 28 26 25 24 23 23 23 22 22
1 2 1 4 4 3 4 4 3 4 4 2 1 2 4 3 4 6 5 3 1 3 3 0 4 10 7 1 4 8 10 12 16 18 21 26 30 33 35 37 37 36 36 33 32 31 30 30 32 34 35 36 37 38 40 41 42 43 43 42 42 42 41 39 37 35 34 34 32 30 29 29 30 32 33 32 30 28 27 25 24 24 24 23 23 22
1 1 2 3 5 6 6 5 5 4 1 2 3 3 5 4 6 4 2 3 1 6 6 3 6 10 6 3 4 7 8 11 18 23 25 26 31 35 37 38 37 35 32 30 29 28 29 32 34 36 36 36 37 38 39 40 42 43 43 43 42 42 41 39 37 36 35 33 30 29 29 29 30 32 34 32 30 29 27 26 25 24 24 24 23 23
1 2 2 2 1 3 4 4 4 3 2 2 3 4 5 7 8 5 2 2 2 5 6 5 8 12 10 9 10 10 8 10 18 25 26 27 32 35 37 38 36 33 30 29 29 30 32 33 34 34 33 33 33 34 36 39 41 41 41 41 41 42 41 40 38 35 33 30 30 30 30 29 30 33 33 32 31 29 27 26 25 25 25 24 24 23
2 1 3 5 6 6 6 7 4 1 3 7 7 5 5 7 8 5 3 3 5 2 4 8 12 16 19 18 16 15 13 12 16 22 26 29 32 34 35 35 33 31 30 30 31 32 31 30 30 30 29 29 30 32 34 36 37 38 39 40 41 41 41 40 37 34 32 30 31 30 29 29 31 33 32 31 30 29 27 26 26 26 25 25 25 24
3 2 4 4 7 9 7 9 8 4 6 10 10 8 6 7 7 7 6 9 4 2 7 14 12 11 16 19 17 17 16 14 17 24 29 31 32 34 34 33 31 30 30 31 30 29 28 28 29 29 29 31 34 36 37 37 38 38 38 38 39 40 40 39 36 33 32 31 31 30 28 29 32 32 31 30 30 29 28 27 27 26 26 26 26 24
4 3 5 2 6 10 8 9 11 7 7 9 10 12 9 7 10 12 15 14 7 5 14 18 14 13 16 19 18 18 19 19 22 28 31 32 33 35 34 32 31 31 31 31 30 28 29 31 31 31 34 37 38 39 39 39 40 39 38 37 38 38 38 37 34 33 32 31 30 28 27 30 33 32 30 30 30 29 28 27 27 28 28 27 26 24
3 3 5 3 5 11 9 10 10 7 6 7 10 13 11 9 13 14 15 15 11 13 17 19 19 19 18 18 18 22 26 26 26 30 32 33 35 34 32 30 30 31 33 32 31 31 31 32 32 33 36 37 38 39 40 40 40 39 37 35 35 35 35 34 33 33 32 31 28 26 29 33 34 31 29 30 30 29 28 28 29 29 28 27 25 24
2 3 3 2 2 9 8 8 7 5 5 8 13 15 12 10 11 11 12 11 9 12 16 16 17 16 16 18 19 23 26 24 23 28 31 34 35 33 31 31 32 35 35 33 30 30 31 33 34 36 38 39 41 42 42 43 42 39 36 33 32 33 33 33 32 31 29 26 23 26 32 34 32 30 29 30 30 29 29 29 29 29 28 26 25 24
2 3 2 4 3 7 5 4 7 6 6 9 15 17 14 10 7 7 8 7 8 10 12 11 10 10 12 15 18 23 25 22 22 26 29 31 34 33 32 34 36 35 32 29 29 32 34 36 37 39 40 41 42 41 41 42 40 38 36 33 31 31 31 31 29 26 22 21 25 31 33 32 29 28 29 30 30 30 29 29 29 28 27 26 25 24
3 2 1 2 2 6 5 5 6 6 7 9 10 9 7 6 6 6 6 7 9 9 7 7 8 10 12 13 16 20 21 20 21 25 28 31 34 34 34 33 33 30 28 30 33 34 36 37 38 39 40 40 40 40 40 38 37 35 34 31 30 29 29 27 23 20 20 25 30 32 31 29 27 28 29 29 29 29 29 28 28 27 26 25 25 24
3 4 1 1 2 6 7 5 6 6 6 7 5 6 6 7 9 9 8 8 8 6 5 7 10 11 13 14 14 16 19 21 24 27 30 32 31 30 30 28 27 29 31 32 33 34 36 37 38 39 39 40 40 40 40 39 38 36 33 31 29 28 25 21 18 20 25 28 29 29 27 26 26 27 28 28 28 28 28 28 27 27 26 25 25 24
4 4 2 2 2 4 5 5 6 7 6 5 7 6 5 7 7 6 6 8 9 10 10 11 12 14 17 20 20 22 26 28 28 29 27 25 23 24 25 27 28 30 32 33 34 36 37 37 39 40 41 41 42 42 42 42 41 38 34 30 27 23 18 17 21 25 27 27 26 25 24 25 25 26 27 27 27 27 27 27 27 26 25 25 25 24
6 4 1 1 2 3 3 2 3 9 8 7 11 8 2 1 1 2 5 7 9 11 10 10 13 16 20 24 25 26 28 30 29 24 18 19 24 26 27 29 31 32 33 34 36 36 37 38 41 43 43 43 44 44 42 39 35 31 26 21 18 16 18 24 27 27 26 25 24 23 23 24 24 25 26 26 26 27 27 27 26 25 25 25 25 25
6 4 1 1 2 2 2 3 4 10 12 8 6 2 2 1 1 1 4 5 8 11 12 11 13 15 18 22 24 23 25 27 23 15 16 25 32 32 32 33 34 34 34 34 34 36 39 42 43 43 43 41 41 39 36 32 26 22 19 17 19 24 28 30 29 27 25 24 23 23 23 23 24 25 25 26 26 26 26 26 25 24 24 24 25 25
6 4 3 2 2 1 1 4 5 7 8 6 4 2 3 3 3 4 1 4 7 13 15 11 10 12 15 17 20 22 22 19 13 11 22 34 36 35 36 36 35 34 34 35 37 41 43 44 43 41 40 39 39 36 32 29 26 23 24 26 28 30 31 29 27 25 24 23 23 23 23 24 24 25 25 26 26 26 25 25 25 24 23 24 25 25
3 1 4 2 3 1 0 4 3 5 7 5 4 3 3 2 3 4 2 7 5 8 11 10 10 13 12 15 20 19 14 10 9 15 28 37 37 36 37 35 34 34 36 39 41 42 43 41 39 38 37 37 37 34 30 28 27 28 30 31 30 29 27 25 25 24 23 22 22 23 24 24 25 25 25 25 26 25 25 24 23 23 23 23 25 25
1 1 2 3 5 3 2 3 4 5 7 7 5 3 5 4 2 3 6 9 7 11 14 11 12 14 16 20 21 14 7 7 11 20 31 36 36 35 33 32 34 36 38 40 40 41 40 37 35 36 36 35 34 33 31 30 30 32 32 29 26 24 24 24 23 22 21 22 22 23 24 25 25 25 24 24 24 24 23 23 22 22 22 23 24 25
1 2 2 4 5 4 4 4 5 5 6 7 4 4 6 3 1 3 6 10 16 24 23 18 17 19 21 23 19 11 10 15 19 26 32 33 33 32 32 33 35 36 37 38 39 37 35 33 34 35 35 34 34 34 34 32 32 30 27 24 22 23 23 23 22 21 21 22 23 24 24 24 24 23 23 23 22 22 22 21 21 22 22 24 24 25
2 1 2 3 3 4 4 3 4 6 5 3 4 6 4 0 3 6 12 18 23 24 21 20 20 21 22 22 18 16 19 23 24 28 31 31 31 33 35 36 36 36 38 38 36 33 32 34 37 36 35 34 32 30 29 29 27 24 21 22 24 24 24 23 23 23 22 22 23 24 24 23 23 22 22 22 22 23 23 22 22 22 23 24 25 26
4 3 2 3 4 3 2 2 4 7 4 7 7 3 3 2 9 18 21 24 23 19 18 20 19 19 20 21 20 22 24 25 27 29 31 30 31 33 35 35 35 38 38 35 30 30 34 38 37 35 33 32 29 26 25 25 23 22 23 25 26 24 24 24 24 23 23 23 23 23 23 22 22 22 22 23 23 24 24 22 22 22 23 24 25 26
4 5 3 3 3 2 2 3 3 3 4 5 4 5 6 12 23 24 20 21 21 18 18 19 18 18 20 21 23 24 25 26 28 30 31 31 32 34 34 34 37 38 33 28 28 33 38 38 34 32 31 28 26 25 24 23 24 25 27 27 25 24 24 24 24 24 23 23 22 22 22 22 21 21 22 22 23 23 23 22 22 22 23 23 24 25
7 8 4 4 5 4 5 9 11 13 17 16 14 17 22 26 25 18 17 19 18 16 18 19 19 20 22 23 25 24 24 26 29 30 30 30 31 32 33 35 36 32 26 26 33 38 38 33 30 30 29 27 27 27 25 24 26 27 26 25 23 22 22 22 23 23 23 22 22 21 21 21 21 21 21 21 22 22 22 22 22 22 23 23 23 24
9 9 4 1 3 5 10 16 17 18 22 23 21 25 27 23 17 18 22 21 16 16 19 19 19 21 23 23 23 22 23 27 29 28 27 29 31 32 34 35 31 25 26 33 39 39 35 30 28 28 28 27 28 28 27 27 26 24 23 22 21 21 21 21 22 22 22 22 22 22 22 23 22 22 22 21 21 21 21 21 22 22 22 22 22 23
4 4 3 2 3 4 6 8 7 10 19 25 27 26 20 14 17 22 23 18 17 20 21 19 20 22 21 20 19 19 22 26 27 26 27 29 32 34 33 30 25 26 33 37 36 33 31 29 28 28 28 28 29 29 29 28 25 22 21 21 20 21 21 22 22 23 24 24 24 24 24 24 24 23 22 21 20 20 20 21 21 22 22 22 22 22
0 1 1 4 5 4 8 12 14 18 24 25 22 18 14 16 21 20 17 16 19 20 19 20 22 21 19 18 17 18 22 24 23 24 28 31 33 32 28 25 26 32 36 34 30 29 28 27 27 27 28 29 29 28 27 26 24 22 21 21 21 22 23 23 24 25 26 26 26 25 25 24 24 23 22 21 20 20 20 20 20 21 22 21 21 22
2 1 2 3 3 5 10 14 16 16 16 14 12 12 16 20 20 17 18 21 21 18 18 19 20 19 19 18 17 19 22 22 22 25 29 31 30 26 23 25 30 32 31 28 27 27 26 26 26 26 27 27 26 26 25 24 23 22 22 22 23 23 24 25 25 26 26 26 25 25 24 23 23 22 22 22 21 20 20 19 19 21 22 21 21 21
3 4 3 2 3 5 6 8 10 8 8 12 15 17 20 20 19 20 23 22 18 17 17 18 19 19 17 16 18 20 22 23 26 28 29 28 24 21 23 28 29 27 26 25 25 25 25 25 25 25 25 25 24 24 24 23 22 22 22 23 24 24 25 26 26 26 25 24 24 23 23 23 22 22 22 21 21 21 21 19 19 21 22 23 22 22
9 8 6 4 5 8 13 17 17 12 13 19 23 23 21 19 21 24 23 18 16 16 18 19 20 18 15 15 18 21 23 25 27 27 26 24 20 20 24 26 24 23 24 24 24 24 24 24 23 23 24 24 24 24 23 23 22 23 23 23 24 24 25 25 25 25 24 23 23 22 22 22 22 22 22 21 21 22 23 23 22 21 21 21 22 23
Wind_Direction
60 62 36 22 339 346 350 338 292 252 240 113 70 72 82 37 328 319 13 103 102 88 51 91 101 95 86 76 98 111 114 116 123 130 135 145 153 159 168 171 180 189 193 191 182 177 174 175 176 175 178 181 183 193 207 225 262 281 286 296 300 301 304 306 306 307 307 307 307 307 306 306 307 308 307 306 304 301 299 298 298 297 296 294 293 291
58 63 3 337 326 352 357 338 359 67 71 76 82 60 47 38 319 304 347 43 84 98 104 117 102 92 104 87 97 113 113 124 138 144 152 160 166 173 178 180 186 192 195 196 188 185 186 188 188 190 196 203 210 222 242 253 272 290 295 298 300 302 304 306 306 306 307 306 306 306 305 305 305 305 304 304 302 298 297 296 295 294 293 292 291 289
49 45 332 331 356 47 27 10 37 72 79 65 68 75 36 7 314 308 332 339 13 102 152 171 113 108 153 109 108 113 110 133 152 160 168 172 175 181 185 189 191 193 201 207 201 197 199 202 205 209 213 221 231 240 256 268 278 290 295 298 300 302 304 306 307 307 308 308 308 308 307 306 306 306 305 304 303 299 297 296 293 292 291 290 289 287
66 354 320 341 39 51 30 25 39 54 67 65 61 73 354 339 32 318 315 328 350 90 144 154 112 119 185 91 127 137 132 140 156 170 178 185 190 192 198 202 201 203 210 218 215 209 209 214 218 223 227 232 242 252 262 272 280 288 294 298 301 304 306 308 309 310 311 311 311 311 310 309 308 308 308 306 304 301 299 297 293 292 292 291 290 288
68 330 334 16 52 46 38 31 40 48 34 32 72 81 348 319 313 208 281 327 10 62 130 130 79 307 202 199 215 175 160 163 171 178 185 195 198 199 203 207 214 218 222 228 230 223 219 221 225 231 237 240 247 256 265 274 282 288 295 299 302 305 307 310 311 312 313 313 313 312 311 310 309 309 310 308 306 302 299 297 293 293 293 292 292 290
34 350 8 43 37 33 54 40 43 65 18 336 43 76 350 308 289 256 314 2 54 51 189 131 53 299 209 203 219 192 184 189 187 190 196 200 202 206 209 212 220 226 231 237 243 239 230 227 230 235 241 247 252 258 265 274 283 290 295 300 303 306 308 310 312 313 313 313 312 312 311 311 311 312 313 311 307 302 298 295 293 294 295 293 292 291
11 3 29 51 29 35 44 31 34 68 55 345 304 338 342 324 301 311 28 53 91 224 249 104 102 263 246 230 220 191 201 216 204 204 206 206 210 215 220 225 227 231 237 240 246 249 239 232 233 237 243 252 257 261 264 272 283 290 294 299 301 304 307 309 311 311 312 311 311 310 311 312 313 314 314 311 305 300 297 295 294 295 296 295 293 291
354 6 22 31 33 40 33 10 332 38 69 291 291 326 329 320 294 288 86 104 192 225 333 25 91 226 277 252 215 184 200 228 225 225 218 213 217 223 229 236 237 239 243 244 248 254 248 238 237 241 246 253 259 261 263 270 281 288 292 296 298 301 304 305 307 308 308 310 310 310 311 312 314 315 314 309 302 298 296 294 293 294 296 295 292 291
332 15 19 32 32 24 8 308 290 12 79 261 283 312 300 281 249 216 112 130 242 119 317 329 38 75 282 273 201 176 207 244 237 229 222 217 220 227 233 237 241 245 248 250 254 260 258 246 241 245 249 254 259 260 263 269 279 285 289 292 295 297 300 301 304 304 306 310 311 311 311 313 315 316 313 307 300 296 293 291 291 292 294 293 290 287
190 71 48 68 46 356 297 290 287 105 26 285 294 317 305 14 123 136 108 104 20 82 240 295 18 66 283 272 215 189 224 246 240 230 222 221 225 231 235 238 241 244 247 252 257 263 266 255 246 248 252 255 258 260 262 268 276 282 285 289 291 294 297 299 302 304 307 311 312 312 312 314 316 316 312 305 298 294 291 289 289 291 292 292 290 286
208 305 29 65 33 326 269 315 357 66 351 328 332 357 15 30 42 67 80 88 55 18 241 249 173 108 299 268 209 200 218 216 217 231 228 223 226 232 237 240 242 244 247 252 257 263 267 259 249 250 254 256 258 260 262 266 274 279 281 284 286 290 295 298 301 305 309 310 310 311 312 314 317 315 309 302 297 294 291 289 289 290 291 291 290 287
2 359 346 38 24 6 343 8 8 10 15 12 12 25 25 359 13 23 4 45 68 283 244 235 121 115 232 263 225 222 235 210 195 215 223 217 223 230 237 242 245 248 251 254 258 263 265 259 253 254 257 258 259 260 262 266 273 276 277 280 283 288 293 297 302 306 308 308 308 310 312 314 318 316 307 300 297 294 291 289 288 289 290 291 290 288
357 335 320 310 21 20 38 36 349 349 17 24 23 40 53 8 9 12 342 8 132 252 251 296 32 101 235 253 236 227 235 227 214 220 227 224 225 232 239 244 248 252 253 256 260 265 266 262 259 259 260 260 260 261 262 266 271 273 274 277 280 286 292 297 302 305 305 305 307 309 310 313 317 317 308 299 295 293 290 287 286 287 289 290 290 289
334 303 342 355 356 15 51 80 1 329 356 2 2 54 91 79 35 341 304 330 288 269 284 334 22 267 277 275 235 223 232 229 226 231 241 243 239 240 245 249 253 254 255 258 262 267 270 269 267 264 264 263 261 262 263 265 269 271 273 275 279 285 290 294 299 301 301 303 305 306 307 311 316 317 311 300 295 292 288 285 283 284 286 288 290 289
58 316 337 30 322 357 40 117 170 211 319 312 283 105 114 132 124 188 246 248 266 280 299 335 50 211 257 274 237 241 258 247 238 242 249 254 252 249 252 253 254 254 256 260 264 268 273 276 274 270 267 266 264 264 264 265 268 270 271 274 277 281 284 289 294 296 299 302 303 302 304 308 314 317 312 301 295 291 287 284 281 282 284 285 287 286
110 250 270 237 262 13 78 239 168 121 310 283 90 82 57 183 141 157 215 208 238 299 299 302 225 215 225 266 283 293 291 269 249 248 249 252 253 251 253 255 255 257 259 262 266 272 278 280 278 274 272 270 269 268 268 268 269 270 273 275 276 277 280 284 289 293 298 300 300 300 303 307 312 315 312 301 293 290 285 281 279 279 281 282 283 283
86 267 267 319 311 239 174 265 36 102 192 320 41 58 245 187 126 110 275 263 18 320 281 263 257 287 316 307 327 355 306 276 256 250 247 249 253 252 254 257 260 262 263 267 271 276 280 282 280 278 276 274 273 274 274 274 273 275 277 277 275 274 275 280 285 290 295 297 299 300 301 306 311 313 311 300 290 287 284 280 277 277 278 280 281 281
123 282 275 193 273 268 183 80 2 48 128 98 67 240 241 64 85 98 303 333 18 286 272 276 260 283 326 304 319 347 292 272 260 249 248 251 253 252 255 260 264 266 269 272 274 277 280 281 281 281 280 278 276 276 276 276 277 278 280 278 275 272 272 277 282 286 290 293 296 298 300 304 309 312 309 298 288 285 284 281 279 278 278 279 281 281
123 319 291 220 199 279 72 60 352 327 31 115 164 195 88 70 339 6 358 323 348 290 282 297 284 270 237 241 282 291 261 263 266 256 249 251 249 249 256 263 267 269 269 271 275 278 280 283 285 285 283 280 279 277 277 277 277 277 276 274 273 272 272 273 275 278 283 289 293 297 299 302 307 310 306 296 287 283 283 282 281 279 278 279 280 281
67 103 292 284 245 352 24 51 255 282 329 41 63 18 53 136 182 205 194 187 216 276 286 307 315 283 233 218 234 258 252 255 267 266 252 249 252 256 263 269 272 272 272 274 278 281 284 287 288 287 285 283 281 280 278 277 275 274 272 269 267 268 266 265 268 272 278 284 289 293 296 300 306 308 303 293 285 282 281 281 280 278 278 278 278 278
22 119 255 301 342 22 343 264 204 191 203 57 54 4 332 354 107 226 238 179 154 200 256 294 300 269 249 210 218 255 260 257 260 261 255 256 262 269 272 275 277 276 276 279 281 283 286 288 287 286 285 283 282 280 277 275 274 272 269 267 265 263 260 260 264 269 275 281 285 289 294 299 305 306 300 290 284 281 279 278 277 277 277 276 276 277
23 122 221 289 320 279 232 258 214 173 164 149 150 183 192 156 87 34 291 286 110 169 209 232 278 274 265 180 206 245 253 258 261 255 253 262 270 275 278 280 279 277 279 281 283 284 286 286 286 287 287 284 280 278 275 274 272 269 268 267 265 261 258 259 262 267 274 278 281 286 292 298 303 304 298 288 282 280 278 278 277 275 275 274 274 275
100 109 153 266 263 233 241 278 83 123 124 124 156 173 148 135 127 140 234 268 300 264 238 189 256 273 270 166 204 244 250 261 267 261 257 268 276 280 283 284 282 280 282 284 284 284 285 287 290 291 290 286 282 278 275 272 270 268 268 267 265 261 259 260 263 267 271 274 277 282 289 295 300 302 296 286 281 279 279 279 277 275 274 273 274 275
58 95 53 288 291 296 286 309 14 48 69 91 239 176 155 161 149 159 182 183 199 259 265 282 259 268 281 280 241 260 266 270 273 270 266 271 280 285 286 287 286 286 286 285 284 283 286 290 293 292 289 287 285 281 276 273 270 269 268 267 265 263 262 261 262 264 267 270 275 280 286 293 299 300 294 286 280 279 279 278 276 275 274 274 276 278
316 181 73 350 331 338 337 341 343 347 25 210 243 206 179 145 112 123 140 96 233 236 203 199 263 262 274 330 311 290 289 281 277 280 279 276 281 287 289 289 289 288 286 283 282 284 289 293 293 290 287 286 283 279 275 272 271 270 269 268 267 265 264 261 259 260 263 267 273 278 285 292 298 299 293 285 280 278 278 277 275 274 274 274 276 278
162 194 131 107 296 294 302 297 278 280 285 263 245 210 188 157 144 154 133 108 242 233 175 181 257 272 286 303 301 295 292 284 285 289 291 287 286 289 290 290 290 287 283 282 284 289 293 295 294 291 290 289 286 282 280 277 274 271 270 269 268 266 263 260 257 258 260 264 271 277 284 292 298 299 292 283 279 277 277 275 273 272 273 274 276 278
111 267 199 174 197 221 236 248 249 292 294 280 273 245 206 185 174 147 115 185 211 204 198 220 244 273 289 293 295 297 295 293 295 298 298 295 294 294 292 292 290 286 285 287 289 292 293 295 297 297 297 299 299 296 291 284 277 273 270 268 266 263 259 257 255 256 259 264 270 275 283 293 299 298 291 282 277 276 275 273 271 272 273 275 277 279
85 310 254 202 224 238 242 260 279 305 273 267 272 262 225 193 177 163 199 224 187 101 269 257 244 256 277 284 288 294 297 300 301 301 300 300 300 301 299 298 296 294 296 297 297 296 299 304 306 305 304 305 304 301 295 288 280 275 272 268 265 260 256 253 252 254 259 264 269 275 286 296 299 296 288 280 276 274 273 271 271 272 274 276 278 279
110 260 246 191 258 264 258 263 271 271 259 256 260 260 245 202 183 194 224 231 199 206 258 269 272 269 273 281 286 290 294 296 297 299 302 304 307 308 307 305 305 306 308 307 305 305 308 310 310 308 307 307 305 302 298 291 284 277 272 267 262 256 252 249 250 253 259 263 267 277 291 300 299 293 285 278 274 273 273 272 272 273 274 277 279 280
125 247 238 188 275 281 273 265 263 254 253 260 259 257 248 216 202 210 233 239 225 233 251 267 278 277 275 278 282 286 290 293 297 304 309 312 314 314 312 311 312 313 314 311 309 309 312 314 314 313 312 310 308 306 302 297 289 282 276 269 261 254 250 249 250 254 257 260 267 284 298 300 296 290 282 276 274 273 273 273 274 275 277 279 280 281
151 254 250 132 301 288 276 273 276 259 255 273 276 269 259 243 230 227 239 248 243 248 255 264 273 276 276 279 284 289 295 301 308 311 313 314 316 316 313 313 315 315 314 313 313 317 320 321 320 318 315 312 309 306 303 299 292 284 277 271 262 255 251 250 251 253 255 262 279 297 301 297 292 285 279 275 273 273 274 274 275 276 278 280 281 282
164 265 332 60 346 282 266 301 312 313 300 283 278 274 264 248 234 226 231 229 221 241 262 272 275 276 281 290 297 301 305 310 312 312 313 315 316 316 314 314 316 316 318 322 325 327 327 324 321 318 314 312 311 309 307 301 293 284 278 271 263 256 252 250 249 251 261 280 298 302 297 292 287 282 277 274 272 274 275 275 276 277 279 281 283 283
151 152 15 44 308 274 283 322 323 333 327 290 264 247 233 229 231 239 250 237 220 227 253 266 265 274 291 304 305 304 306 310 311 314 316 316 315 315 315 317 320 325 330 332 330 328 325 322 320 318 317 318 318 317 315 307 297 288 282 274 264 256 250 247 249 263 284 299 301 297 293 289 285 280 276 274 274 275 276 277 278 279 282 283 284 282
141 129 166 198 226 272 290 323 333 320 300 276 245 187 195 250 253 241 247 251 239 223 227 256 274 286 294 296 294 294 298 302 307 313 316 317 317 318 323 328 331 334 334 330 328 327 325 324 324 323 324 324 323 322 320 314 306 296 287 276 264 254 248 251 269 290 301 302 298 294 292 288 282 279 276 276 276 277 278 279 280 282 284 284 283 282
140 140 197 213 197 271 303 360 339 290 241 248 285 269 237 248 241 231 246 253 257 262 264 272 280 279 279 280 281 286 292 298 307 315 321 328 335 338 338 338 336 335 333 332 332 331 331 331 331 331 329 327 325 324 322 317 308 297 285 273 262 257 263 283 301 307 307 304 301 298 293 287 283 280 278 278 278 279 280 281 282 284 285 285 284 283
146 155 200 234 211 273 324 62 290 284 283 292 298 300 293 194 88 345 293 250 245 260 265 268 271 270 274 279 282 288 297 305 312 321 338 357 358 351 343 339 338 337 337 337 337 337 337 337 336 333 331 329 327 325 321 314 304 291 280 273 272 286 306 314 315 315 313 311 308 303 297 291 286 283 282 281 281 281 282 283 285 286 286 285 284 284
141 145 167 241 222 234 263 222 253 302 315 306 293 327 74 133 110 17 279 243 232 248 254 255 265 271 275 280 289 304 316 317 316 330 358 357 351 346 342 340 339 338 338 339 338 338 338 337 335 334 333 332 333 329 323 314 304 294 290 296 309 319 321 320 320 319 318 316 312 306 300 295 291 288 286 284 283 283 285 286 287 288 287 285 284 285
150 163 165 197 239 154 305 290 304 317 304 276 267 271 129 122 118 134 223 280 250 254 260 248 248 271 281 292 313 331 337 329 316 334 349 346 345 344 342 340 339 339 339 339 338 338 337 336 336 334 333 334 335 333 327 319 313 310 310 315 320 323 322 321 323 324 322 318 311 304 300 296 293 291 289 287 286 287 288 289 288 287 285 284 284 285
136 131 121 137 272 299 301 271 267 275 273 267 267 228 157 117 105 117 324 299 252 257 278 266 267 292 312 331 342 348 350 334 313 331 342 342 342 343 342 341 341 340 338 338 338 338 337 337 336 335 335 335 334 333 330 325 321 320 319 318 319 320 322 325 327 325 321 314 307 301 298 296 295 293 291 289 289 290 290 289 288 287 285 284 285 286
78 12 108 183 248 238 198 242 249 248 261 279 285 209 164 166 119 42 326 299 300 323 326 321 320 332 350 353 350 354 358 333 318 329 337 338 338 340 342 342 340 338 336 337 338 337 337 338 340 339 339 339 338 335 333 330 328 326 321 317 317 321 325 326 325 322 316 309 303 299 297 296 296 294 292 291 292 291 290 289 289 288 287 286 287 287
181 237 200 199 234 225 204 246 275 255 255 280 285 160 161 181 35 357 296 299 325 335 343 355 355 352 355 353 351 350 338 330 327 329 334 337 339 340 341 340 338 337 336 336 336 337 339 342 342 339 337 336 334 332 331 331 329 324 318 317 322 327 326 323 321 319 313 306 301 298 298 299 299 297 296 295 293 292 291 292 292 291 290 289 289 289
211 208 199 183 216 228 196 213 282 283 265 229 155 146 159 270 336 299 294 315 333 338 346 356 355 351 350 350 348 340 332 333 335 335 337 340 340 340 340 339 338 337 336 336 337 340 341 341 340 338 337 337 337 336 334 331 326 321 321 327 330 328 324 321 319 315 309 305 302 301 303 304 303 301 299 297 296 296 296 297 296 294 293 292 291 290
189 187 235 202 191 210 208 218 288 290 244 161 144 138 145 188 297 303 311 327 338 344 346 348 353 354 349 345 344 339 337 339 341 340 340 340 340 340 340 339 339 338 337 337 339 342 342 341 340 340 341 343 344 344 338 330 326 326 330 331 329 325 321 319 315 311 308 306 306 306 308 307 305 303 301 300 299 298 297 297 296 295 294 293 292 291
193 183 225 234 202 189 220 208 209 248 231 189 207 263 261 280 298 309 325 336 338 342 346 348 352 351 347 346 345 342 341 343 342 341 341 340 340 341 340 339 339 339 338 338 341 342 342 342 341 341 344 345 345 343 339 333 330 329 328 327 325 322 319 316 313 311 310 309 310 310 310 308 306 304 303 301 299 297 297 298 297 295 294 293 292 291
205 190 197 238 226 212 242 252 259 282 294 292 286 289 297 302 307 320 338 338 336 340 346 348 347 345 345 345 344 343 344 343 342 341 341 340 341 340 338 339 341 341 338 337 339 340 341 343 343 343 344 343 341 340 338 334 330 328 327 326 324 320 317 314 312 311 311 312 313 312 311 310 310 309 306 304 302 299 299 300 298 296 296 294 292 293
220 206 192 223 252 268 276 270 267 279 290 295 298 301 304 309 321 334 337 336 338 340 342 345 345 343 344 345 344 344 344 342 341 342 341 340 339 338 339 342 344 341 336 336 337 339 341 344 344 343 343 341 339 339 338 336 335 333 330 327 323 320 318 316 315 315 316 317 317 317 317 316 316 315 312 309 305 302 301 301 300 298 297 295 294 295
251 210 202 238 268 299 288 262 254 281 292 297 304 305 306 318 332 333 332 331 332 335 337 341 343 343 346 348 346 342 341 343 343 342 339 339 338 339 342 344 342 336 335 337 338 339 343 345 344 342 341 339 338 338 339 340 340 337 332 328 326 324 323 322 321 322 322 323 323 323 321 320 319 318 316 312 308 304 302 302 301 299 298 297 298 298
87 120 218 232 225 245 264 267 279 290 292 296 301 303 312 326 330 331 332 332 333 336 336 337 341 345 349 351 346 340 342 345 344 340 337 337 339 342 344 341 334 332 334 337 340 343 346 346 344 341 340 339 339 340 341 342 341 338 334 331 329 327 326 326 326 326 325 325 324 323 322 321 319 317 315 312 309 305 303 303 301 298 297 298 299 299
203 211 239 227 241 266 271 280 293 297 292 291 295 304 319 327 330 334 335 333 335 338 338 341 346 349 350 349 343 338 340 341 341 339 336 337 342 345 338 331 331 334 337 342 346 347 347 345 344 342 341 341 341 342 342 343 341 338 334 331 329 328 328 328 327 326 325 325 323 322 321 318 317 315 313 311 308 305 303 302 301 300 299 300 300 301
210 239 232 216 288 280 262 278 303 309 295 296 308 320 327 330 332 334 333 333 337 340 342 346 349 349 349 346 338 335 337 339 339 338 336 339 345 340 328 329 335 340 344 347 348 348 348 347 345 344 342 343 344 343 343 343 341 336 333 332 330 329 328 327 326 325 326 325 324 322 320 318 317 316 313 311 309 306 304 302 301 301 303 304 304 303
218 228 216 192 229 257 271 289 300 298 290 299 313 324 329 330 330 332 333 335 339 340 341 345 347 347 346 340 335 335 336 337 338 337 337 340 339 331 330 337 344 345 347 348 349 350 350 349 347 345 345 345 345 344 343 342 340 336 334 333 332 331 329 328 327 326 327 327 326 324 322 320 319 318 315 313 312 309 307 306 304 302 301 300 299 297